Regional Weather Roundup
Issued by NWS

Home | Current Version | Previous Version | Graphics & Text | Print | Product List | Glossary On
Versions: 1 2 3 4 5 6 7 8 9 10 11 12 13 14 15 16 17 18 19 20 21 22 23 24 25 26 27 28 29 30 31 32 33 34 35 36 37 38 39 40 41 42 43 44 45 46 47 48 49 50
000
ASUS45 KCYS 301510
RWRWY

WYOMING REGIONAL WEATHER ROUNDUP
NATIONAL WEATHER SERVICE CHEYENNE WY
900 AM MDT SUN AUG 30 2015

NOTE:  "FAIR" INDICATES FEW OR NO CLOUDS BELOW 12,000 FEET
WITH NO SIGNIFICANT WEATHER AND/OR OBSTRUCTIONS TO VISIBILITY.

WYZ001-301600-
YELLOWSTONE NATIONAL PARK

CITY           SKY/WX    TMP DP  RH WIND       PRES   REMARKS
LK YELLOWSTONE   N/A     56  49  77 CALM      30.19R
W YELLOWSTONE  NOT AVBL

$$
WYZ002>013-054>058-071-098>099-301600-
NORTHERN WYOMING

CITY           SKY/WX    TMP DP  RH WIND       PRES   REMARKS
JACKSON        FAIR      61  50  67 SW6       30.12R
CODY           FAIR      72  48  43 S10       29.93R
GREYBULL       FAIR      70  47  43 SE6       29.87R
WORLAND        FAIR      72  46  39 S5        29.89F
SHERIDAN       FAIR      71  47  42 S6        29.85R
BUFFALO        FAIR      76  41  28 S7        29.94R
GILLETTE       FAIR      79  36  21 SW5       29.90R
HULETT         FAIR      81  43  26 SW9       29.91R
NEWCASTLE      FAIR      77  41  27 SE14      29.93F

$$
WYZ014>020-022>026-101>103-301600-
CENTRAL WYOMING

CITY           SKY/WX    TMP DP  RH WIND       PRES   REMARKS
BIG PINEY      FAIR      61  40  45 NE6       30.18R
PINEDALE       FAIR      61  36  39 N3        30.19R
DUBOIS         FAIR      61  43  51 NW12      30.12F
LANDER         FAIR      71  45  39 CALM      30.00S
RIVERTON       FAIR      72  42  34 CALM      30.01R
CASPER         FAIR      79  30  16 SW20G28   30.02R
DOUGLAS        FAIR      75  39  27 SE6       30.00S

$$
WYZ021-027>030-104>119-301600-
SOUTHERN WYOMING

CITY           SKY/WX    TMP DP  RH WIND       PRES   REMARKS
EVANSTON       FAIR      70  44  39 SW13      30.17S
KEMMERER       FAIR      70  37  30 W12       30.18S
FORT BRIDGER   SUNNY     72  43  35 SW10      30.19S
ROCK SPRINGS   FAIR      76  38  25 SW14      30.15R
DIXON          FAIR      59  39  47 CALM      30.22F
RAWLINS        FAIR      77  30  17 SW15G22   30.17S
SARATOGA       FAIR      68  37  32 SE8       30.22S
LARAMIE        FAIR      68  38  33 S13       30.22F
CHEYENNE       FAIR      77  41  27 W9        30.14S
TORRINGTON     FAIR      69  45  41 SE6       29.98S
PINE BLUFFS    FAIR      68  43  40 S6        30.08S

$$



USA.gov is the U.S. government's official web portal to all federal, state and local government web resources and services.